TimeEST,TemperatureF,Dew PointF,Humidity,Sea Level PressureIn,VisibilityMPH,Wind Direction,Wind SpeedMPH,Gust SpeedMPH,PrecipitationIn,Events,Conditions,WindDirDegrees,DateUTC
12:55 AM,31.1,26.1,82,30.14,10.0,SE,5.8,-,N/A,,Overcast,140,2012-12-28 05:55:00
1:55 AM,30.9,25.2,79,30.13,10.0,ESE,5.8,-,N/A,,Overcast,110,2012-12-28 06:55:00
2:55 AM,30.6,25.3,81,30.12,10.0,East,8.1,-,N/A,,Overcast,90,2012-12-28 07:55:00
3:55 AM,30.2,24.8,80,30.12,10.0,East,6.9,-,N/A,,Overcast,80,2012-12-28 08:55:00
4:55 AM,29.8,25.0,82,30.09,10.0,East,6.9,-,N/A,,Overcast,80,2012-12-28 09:55:00
5:55 AM,30.0,25.7,84,30.08,10.0,East,6.9,-,N/A,,Overcast,100,2012-12-28 10:55:00
6:55 AM,30.0,26.1,85,30.08,10.0,East,3.5,-,N/A,,Overcast,90,2012-12-28 11:55:00
7:55 AM,30.4,26.1,84,30.10,10.0,Calm,Calm,-,N/A,,Overcast,0,2012-12-28 12:55:00
8:55 AM,30.6,26.2,84,30.12,10.0,Calm,Calm,-,N/A,,Overcast,0,2012-12-28 13:55:00
9:55 AM,31.5,26.6,82,30.11,10.0,ENE,5.8,-,N/A,,Overcast,70,2012-12-28 14:55:00
10:55 AM,32.5,27.5,82,30.14,10.0,Calm,Calm,-,N/A,,Overcast,0,2012-12-28 15:55:00
11:55 AM,33.4,28.0,81,30.09,10.0,East,4.6,-,N/A,,Overcast,100,2012-12-28 16:55:00
12:55 PM,34.3,28.8,80,30.02,10.0,East,6.9,-,N/A,,Overcast,100,2012-12-28 17:55:00
1:55 PM,35.4,29.1,78,30.01,10.0,ESE,6.9,-,N/A,,Overcast,110,2012-12-28 18:55:00
2:19 PM,35.6,28.4,75,29.94,10.0,East,6.9,-,N/A,,Overcast,90,2012-12-28 19:19:00
2:55 PM,36.5,29.5,76,29.96,10.0,ESE,6.9,-,N/A,,Overcast,110,2012-12-28 19:55:00
3:55 PM,36.5,29.5,76,29.95,10.0,East,5.8,-,N/A,,Mostly Cloudy,100,2012-12-28 20:55:00
4:55 PM,36.7,29.7,76,29.96,10.0,East,4.6,-,N/A,,Overcast,80,2012-12-28 21:55:00
5:55 PM,36.5,30.6,79,29.92,10.0,East,5.8,-,N/A,,Overcast,80,2012-12-28 22:55:00
6:16 PM,35.6,32.0,87,29.88,7.0,ENE,4.6,-,N/A,Rain,Light Rain,70,2012-12-28 23:16:00
6:55 PM,35.6,32.0,87,29.90,7.0,East,6.9,-,0.00,Rain,Light Rain,80,2012-12-28 23:55:00
7:51 PM,35.6,32.0,87,29.85,4.0,East,6.9,-,N/A,Snow,Light Snow,90,2012-12-29 00:51:00
7:55 PM,34.7,32.2,91,29.88,4.0,East,6.9,-,0.00,Snow,Light Snow,90,2012-12-29 00:55:00
8:55 PM,34.7,32.5,92,29.84,10.0,ENE,6.9,-,0.00,Snow,Light Snow,60,2012-12-29 01:55:00
9:32 PM,33.8,32.0,93,29.83,2.0,North,3.5,-,N/A,Rain-Snow,Light Rain,360,2012-12-29 02:32:00
9:44 PM,32.0,32.0,100,29.82,1.2,NNE,3.5,-,N/A,Snow,Light Snow,30,2012-12-29 02:44:00
9:55 PM,33.3,31.6,94,29.84,1.2,ENE,5.8,-,0.02,Snow,Light Snow,60,2012-12-29 02:55:00
10:30 PM,32.0,32.0,100,29.82,0.5,North,2.3,-,N/A,Snow,Light Snow,360,2012-12-29 03:30:00
10:55 PM,32.5,31.5,96,29.82,0.8,NNE,5.8,-,0.05,Snow,Light Snow,20,2012-12-29 03:55:00
11:00 PM,32.0,32.0,100,29.81,3.0,NNE,5.8,-,N/A,Snow,Light Snow,30,2012-12-29 04:00:00
11:08 PM,32.0,32.0,100,29.81,3.0,NNE,5.8,-,N/A,Snow,Light Snow,30,2012-12-29 04:08:00
11:09 PM,32.0,32.0,100,29.81,3.0,NE,5.8,-,N/A,Snow,Light Snow,40,2012-12-29 04:09:00
11:23 PM,32.0,32.0,100,29.80,4.0,NE,5.8,-,N/A,Snow,Light Snow,50,2012-12-29 04:23:00
11:26 PM,32.0,32.0,100,29.80,4.0,NE,5.8,-,N/A,Snow,Light Snow,40,2012-12-29 04:26:00
11:28 PM,32.0,32.0,100,29.79,4.0,NE,5.8,-,N/A,Snow,Light Snow,50,2012-12-29 04:28:00
11:36 PM,32.0,32.0,100,29.79,5.0,NE,6.9,-,N/A,Snow,Light Snow,50,2012-12-29 04:36:00
11:38 PM,32.0,32.0,100,29.78,5.0,NE,6.9,-,N/A,Snow,Light Snow,50,2012-12-29 04:38:00
11:55 PM,32.5,31.8,97,29.78,3.0,ENE,5.8,-,0.01,Snow,Light Snow,60,2012-12-29 04:55:00